Back to catalog

SL-14 DEB

AlivePO
NORAD 45309·DEBRIS·🇷🇺 Russia

Launched Aug 15, 1991 from Plesetsk Cosmodrome

Loading…

Next Passes (next 24 hours)

TLE

FreshSource: Space-Track

Epoch: Sep 13, 2026, 14:05 UTC

1 45309U 91056AX  26256.58688808  .00004248  00000-0  93676-2 0  9995
2 45309  82.6198 100.6889 0110390 127.4590 233.6641 13.25653018315379

Track SL-14 DEB in real time with AllMySat

Download on the App Store